Flag for Canada Weather past 2 weeks in Dieppe, New Brunswick, Canada

Now
34 °F

Passing clouds.


Feels Like: 25 °F
Forecast: 22 / 36 °F
Wind: 12 mph from Southwest

Location: Moncton

Current Time: Mar 29, 2015 at 3:00:53 PM

Latest Report: Mar 29, 2015 at 2:00 PM


Visibility: 15 mi

Pressure: 29.98 "Hg

Humidity: 27%

Dew point: 3 °F

Location of DieppeLocation

Historic Weather in Dieppe — Graph

°F

Dieppe temperature yesterday

Maximum temperature yesterday: 34 °F (at 12:00 AM)
Minimum temperature yesterday: 23 °F (at 9:00 PM)
Average temperature yesterday: 28 °F

Past Weeks' High & Low Weather Summary

 TemperatureHumidityPressure
High45 °F (Mar 26, 2:00 PM)100% (Mar 16, 3:00 AM)30.31 "Hg (Mar 16, 3:00 AM)
Low0 °F (Mar 17, 6:00 AM)22% (Mar 14, 5:00 PM)29.21 "Hg (Mar 18, 4:00 AM)
Average25 °F69%29.79 "Hg
* Reported Mar 14 2:00 PM — Mar 29 2:00 PM, Dieppe, Weather by CustomWeather, © 2015

Note: Actual official high and low records may vary slightly from our data, if they occured in-between our weather recording intervals... More about our weather records

Advertising

Dieppe weather history for previous 24 hours

 ConditionsComfort  
Time TempWeatherWind HumidityBarometerVisibility
2:00 PM
Sun, Mar 29
34 °FPassing clouds.12 mph27%29.98 "Hg15 mi
1:00 PM34 °FPassing clouds.12 mph29%29.99 "Hg15 mi
12:00 PM32 °FPassing clouds.12 mph34%30.00 "Hg15 mi
11:00 AM28 °FPassing clouds.10 mph40%30.00 "Hg15 mi
10:00 AM27 °FScattered clouds.8 mph39%29.99 "Hg15 mi
9:00 AM23 °FPartly sunny.7 mph42%29.96 "Hg15 mi
8:00 AM21 °FPassing clouds.7 mph49%29.95 "Hg15 mi
7:00 AM21 °FMostly cloudy.7 mph58%29.92 "Hg15 mi
6:00 AM23 °FPassing clouds.9 mph63%29.88 "Hg15 mi
5:00 AM23 °FOvercast.8 mph68%29.86 "Hg15 mi
4:00 AM23 °FMostly cloudy.10 mph68%29.84 "Hg15 mi
3:00 AM23 °FMostly cloudy.12 mph68%29.83 "Hg15 mi
2:00 AM23 °FOvercast.10 mph68%29.83 "Hg15 mi
1:00 AM23 °FOvercast.12 mph68%29.81 "Hg15 mi
12:00 AM23 °FMostly cloudy.7 mph68%29.80 "Hg15 mi
11:00 PM
Sat, Mar 28
23 °FOvercast.10 mph68%29.77 "Hg15 mi
10:00 PM23 °FOvercast.15 mph68%29.76 "Hg15 mi
9:00 PM23 °FPassing clouds.17 mph68%29.75 "Hg15 mi
8:00 PM25 °FPartly sunny.18 mph59%29.75 "Hg15 mi
7:00 PM25 °FPartly sunny.16 mph63%29.78 "Hg15 mi
6:00 PM27 °FPartly sunny.15 mph69%29.77 "Hg15 mi
5:00 PM28 °FPartly sunny.18 mph59%29.77 "Hg15 mi
4:00 PM28 °FPartly sunny.18 mph64%29.77 "Hg15 mi
3:00 PM30 °FPartly sunny.15 mph64%29.80 "Hg15 mi
Weather by CustomWeather, © 2015

See weather overviewHow to use our weather pages